Weather History for Avoca, PA

Change the Weather History Date:

Friday, March 8, 2013

  Actual Average Record
Temperature  
Mean Temperature 32 °F 34 °F  
Max Temperature 37 °F 43 °F 74 °F (2000)
Min Temperature 27 °F 25 °F 7 °F (1996)
Degree Days  
Heating Degree Days 33 31  
Month to date heating degree days 264 256  
Since 1 July heating degree days 4488 4862  
Cooling Degree Days 0 0  
Month to date cooling degree days 0 0  
Year to date cooling degree days 0 0  
Moisture  
Dew Point 23 °F    
Average Humidity 74    
Maximum Humidity 92    
Minimum Humidity 56    
Precipitation  
Precipitation 0.11 in 0.07 in 1.09 in (1995)
Month to date precipitation 0.11 0.58  
Year to date precipitation 3.44 4.98  
Sea Level Pressure  
Sea Level Pressure 30.17 in    
Wind  
Wind Speed 11 mph (NW)    
Max Wind Speed 23 mph    
Max Gust Speed 29 mph    
Visibility 5 miles    
Events Snow    
T = Trace of Precipitation, MM = Missing Value Source: NWS Daily Summary

Daily Weather History Graph

Daily Weather History Graph

Search for Another Location

Airport:

Trip Planner

Search our weather history database for the weather conditions in past years. The results will help you decide how hot, cold, wet, or windy it might be!

Date:

Astronomy

Mar. 08, 2013 Rise Set
Actual Time 6:25 AM EST 6:01 PM EST
Civil Twilight 5:58 AM EST 6:29 PM EST
Nautical Twilight 5:26 AM EST 7:01 PM EST
Astronomical Twilight 4:54 AM EST 7:33 PM EST
Moon 4:10 AM EST (3/8) 2:52 PM EST (3/8)
Length of Visible Light 12h 31m
Length of Day
11h 36m
Waning Crescent, 12% of the Moon is Illuminated
Mar 8
Waning Crescent
Mar 11
New
Mar 19
First Quarter
Mar 27
Full
Apr 3
Last Quarter

Hourly Weather History & Observations

Time (EST) Temp. Windchill Dew Point Humidity Pressure Visibility Wind Dir Wind Speed Gust Speed Precip Events Conditions
12:11 AM 28.4 °F 19.7 °F 24.8 °F 86% 30.12 in 2.0 mi WNW 9.2 mph - 0.00 in Snow Light Snow
12:54 AM 28.0 °F 18.6 °F 24.1 °F 85% 30.14 in 1.8 mi NW 10.4 mph 20.7 mph 0.01 in Snow Light Snow
1:32 AM 28.4 °F 21.2 °F 24.8 °F 86% 30.12 in 1.2 mi NW 6.9 mph - 0.01 in Snow Light Snow
1:54 AM 28.0 °F 20.8 °F 25.0 °F 88% 30.14 in 1.0 mi NW 6.9 mph - 0.02 in Snow Light Snow
2:14 AM 26.6 °F 17.5 °F 24.8 °F 93% 30.11 in 1.5 mi NNW 9.2 mph - 0.01 in Snow Light Snow
2:43 AM 26.6 °F 19.1 °F 24.8 °F 93% 30.10 in 1.2 mi NW 6.9 mph - 0.02 in Snow Light Snow
2:51 AM 26.6 °F 16.8 °F 24.8 °F 93% 30.10 in 1.2 mi NW 10.4 mph - 0.02 in Snow Light Snow
2:54 AM 27.0 °F 17.3 °F 24.1 °F 89% 30.12 in 1.2 mi NW 10.4 mph 16.1 mph 0.02 in Snow Light Snow
3:11 AM 26.6 °F 17.5 °F 24.8 °F 93% 30.10 in 1.5 mi NW 9.2 mph 18.4 mph 0.01 in Snow Light Snow
3:54 AM 27.0 °F 16.1 °F 23.0 °F 85% 30.12 in 1.5 mi NNW 12.7 mph 21.9 mph 0.02 in Snow Light Snow
4:30 AM 26.6 °F 16.8 °F 23.0 °F 86% 30.10 in 2.0 mi NW 10.4 mph 18.4 mph 0.01 in Snow Light Snow
4:42 AM 26.6 °F 16.8 °F 23.0 °F 86% 30.10 in 2.0 mi NW 10.4 mph 18.4 mph 0.01 in Snow Light Snow
4:50 AM 26.6 °F 15.2 °F 21.2 °F 80% 30.10 in 1.8 mi NNW 13.8 mph 20.7 mph 0.01 in Snow Light Snow
4:54 AM 27.0 °F 17.3 °F 23.0 °F 85% 30.12 in 1.8 mi NNW 10.4 mph 20.7 mph 0.01 in Snow Light Snow
5:04 AM 26.6 °F 15.7 °F 21.2 °F 80% 30.10 in 2.0 mi NW 12.7 mph 19.6 mph 0.00 in Snow Light Snow
5:17 AM 26.6 °F 15.7 °F 21.2 °F 80% 30.10 in 3.0 mi NNW 12.7 mph 20.7 mph 0.00 in Snow Light Snow
5:54 AM 27.0 °F 18.0 °F 21.9 °F 81% 30.13 in 2.5 mi NNW 9.2 mph 21.9 mph 0.00 in Snow Light Snow
6:03 AM 26.6 °F 18.2 °F 21.2 °F 80% 30.11 in 3.0 mi NNW 8.1 mph 19.6 mph 0.01 in Snow Light Snow
6:31 AM 26.6 °F 17.5 °F 21.2 °F 80% 30.11 in 2.5 mi NW 9.2 mph 24.2 mph 0.01 in Snow Light Snow
6:47 AM 26.6 °F 18.2 °F 23.0 °F 86% 30.12 in 1.5 mi NNW 8.1 mph 18.4 mph 0.01 in Snow Light Snow
6:54 AM 27.0 °F 16.7 °F 21.9 °F 81% 30.14 in 1.0 mi NW 11.5 mph 20.7 mph 0.01 in Snow Light Snow
7:54 AM 28.0 °F 18.6 °F 23.0 °F 81% 30.16 in 1.0 mi NNW 10.4 mph 16.1 mph 0.01 in Snow Light Snow
8:54 AM 28.0 °F 19.3 °F 23.0 °F 81% 30.17 in 1.0 mi NNW 9.2 mph 23.0 mph 0.00 in Snow Light Snow
9:54 AM 28.9 °F 19.8 °F 23.0 °F 78% 30.17 in 1.2 mi North 10.4 mph 20.7 mph 0.00 in Snow Light Snow
10:15 AM 30.2 °F 19.3 °F 23.0 °F 75% 30.15 in 2.0 mi NW 15.0 mph 24.2 mph 0.00 in Snow Light Snow
10:38 AM 30.2 °F 20.2 °F 23.0 °F 75% 30.15 in 4.0 mi NNW 12.7 mph 21.9 mph 0.00 in Snow Light Snow
10:54 AM 30.9 °F 20.7 °F 23.0 °F 72% 30.18 in 10.0 mi NW 13.8 mph 19.6 mph 0.01 in   Overcast
11:54 AM 33.1 °F 23.4 °F 23.0 °F 66% 30.18 in 10.0 mi NNW 13.8 mph 23.0 mph N/A   Overcast
12:54 PM 35.1 °F 26.4 °F 23.0 °F 61% 30.17 in 10.0 mi NW 12.7 mph 28.8 mph N/A   Overcast
1:06 PM 35.6 °F 26.2 °F 23.0 °F 60% 30.15 in 10.0 mi NNW 15.0 mph 26.5 mph N/A   Overcast
1:54 PM 36.0 °F 27.1 °F 24.1 °F 62% 30.17 in 10.0 mi NNW 13.8 mph 23.0 mph N/A   Overcast
2:54 PM 37.0 °F 28.5 °F 24.1 °F 59% 30.19 in 10.0 mi NNW 13.8 mph 25.3 mph N/A   Overcast
3:54 PM 37.0 °F 28.9 °F 24.1 °F 59% 30.20 in 10.0 mi NNW 12.7 mph 20.7 mph N/A   Overcast
4:54 PM 37.0 °F 28.1 °F 24.1 °F 59% 30.23 in 10.0 mi NNW 15.0 mph 23.0 mph N/A   Overcast
5:54 PM 36.0 °F 27.1 °F 24.1 °F 62% 30.25 in 10.0 mi NW 13.8 mph 19.6 mph N/A   Scattered Clouds
6:54 PM 36.0 °F 29.0 °F 21.9 °F 57% 30.27 in 10.0 mi NNW 9.2 mph 17.3 mph N/A   Scattered Clouds
7:54 PM 34.0 °F 27.2 °F 21.9 °F 61% 30.30 in 10.0 mi NW 8.1 mph 20.7 mph N/A   Clear
8:54 PM 33.1 °F 26.1 °F 21.0 °F 61% 30.32 in 10.0 mi NNW 8.1 mph 19.6 mph N/A   Clear
9:54 PM 30.9 °F 22.8 °F 19.9 °F 64% 30.32 in 10.0 mi WNW 9.2 mph - N/A   Clear
10:54 PM 30.9 °F 22.2 °F 19.9 °F 64% 30.32 in 10.0 mi WNW 10.4 mph 19.6 mph N/A   Clear
11:54 PM 30.0 °F 22.4 °F 19.9 °F 66% 30.33 in 10.0 mi NW 8.1 mph - N/A   Clear